Location: Unspecified
(0.0000°N, 0.0000°E)
Time: 01:09:06
(UTC+00:00)

CUTE-I - Visible Passes

Search period start: 20 July 2018 00:00
Search period end: 30 July 2018 00:00
Orbit: 812 x 824 km, 98.7° (Epoch: 19 July)

Date Brightness Start Highest point End Pass type
(mag) Time Alt. Az. Time Alt. Az. Time Alt. Az.
20 Jul ? 04:50:24 10° E 04:52:10 12° ESE 04:53:56 10° ESE visible
20 Jul ? 19:08:13 10° SW 19:11:09 15° WSW 19:14:04 10° WNW visible
21 Jul ? 18:45:28 10° SSW 18:49:53 27° WSW 18:54:19 10° NW visible
22 Jul ? 18:23:30 10° S 18:28:37 48° WSW 18:33:45 10° NNW visible
23 Jul ? 05:23:24 10° NE 05:28:06 32° ESE 05:32:47 10° SSE visible
24 Jul ? 05:03:18 10° ENE 05:06:50 18° ESE 05:10:21 10° SE visible
25 Jul ? 19:01:02 10° SW 19:04:33 18° WSW 19:08:07 10° WNW visible
26 Jul ? 18:38:36 10° SSW 18:43:19 32° WSW 18:48:01 10° NW visible
27 Jul ? 05:37:40 10° NNE 05:42:47 48° ESE 05:47:53 10° S visible
28 Jul ? 05:17:06 10° NE 05:21:31 27° ESE 05:25:55 10° SSE visible
29 Jul ? 04:57:21 10° ENE 05:00:15 15° ESE 05:03:09 10° SE visible
29 Jul ? 19:17:26 10° WSW 19:19:13 12° WSW 19:21:02 10° W visible
